Humidity-temperature Sensor

Selected Measurement Type: Relative Humidity

 
Relative Humidity [%]     6 entries per hour
Showing data from 9/17/2019 (00:00:00 Z) to 9/16/2019 (00:01:00 Z)
Previous Next [ Day | 3-Days | 7-Days ]
First Last
Prev [ Day | 3-Days | 7-Days ] Next
First Last

Start Time:     :
End Time:     :     
Time (in GMT) :00 :50 :40 :30 :20 :10
Previous Next [ Day | 3-Days | 7-Days ]
First Last
Prev [ Day | 3-Days | 7-Days ] Next
First Last


123 => good data
MM => data is determined as missing
-- => data not received/configured
Back to Top Back to Top
9/17/2019 00:00 to 23:10 74.92 74.57 74.84 74.25 73.86 75.64
9/16/2019 23:00 to 22:10 75.07 74.19 75.41 76.91 76.79 77.13
9/16/2019 22:00 to 21:10 76.77 74.62 75.84 75.27 74.27 75.97
9/16/2019 21:00 to 20:10 75.13 75.19 76.05 75.84 77.65 75.70
9/16/2019 20:00 to 19:10 75.15 76.01 74.29 74.14 71.87 73.37
9/16/2019 19:00 to 18:10 72.87 74.60 75.25 76.09 75.07 75.66
9/16/2019 18:00 to 17:10 75.00 75.17 74.21 75.33 73.88 73.45
9/16/2019 17:00 to 16:10 73.86 74.84 75.66 75.58 75.93 76.70
9/16/2019 16:00 to 15:10 75.25 76.32 76.52 76.81 75.02 72.81
9/16/2019 15:00 to 14:10 72.32 74.82 73.30 74.37 75.74 75.50
9/16/2019 14:00 to 13:10 75.78 75.35 74.17 74.96 74.53 74.12
9/16/2019 13:00 to 12:10 74.92 75.09 74.68 75.68 75.68 75.31
9/16/2019 12:00 to 11:10 74.78 76.54 76.74 76.72 76.64 77.75
9/16/2019 11:00 to 10:10 76.79 76.13 76.01 76.87 76.66 76.79
9/16/2019 10:00 to 9:10 76.54 77.28 77.54 77.50 76.95 78.36
9/16/2019 09:00 to 8:10 79.02 79.63 79.92 79.63 80.06 80.04
9/16/2019 08:00 to 7:10 80.98 81.00 81.74 81.19 81.43 81.50
9/16/2019 07:00 to 6:10 81.19 82.52 81.46 81.37 81.48 81.25
9/16/2019 06:00 to 5:10 81.86 80.51 82.44 82.40 81.72 81.48
9/16/2019 05:00 to 4:10 82.54 82.83 82.87 82.32 82.50 84.40
9/16/2019 04:00 to 3:10 85.88 84.30 81.84 83.52 83.81 84.08
9/16/2019 03:00 to 2:10 83.30 83.34 85.55 86.02 86.47 84.75
9/16/2019 02:00 to 1:10 84.71 84.24 82.99 83.91 83.17 83.03
9/16/2019 01:00 to 0:10 82.81 82.54 81.41 82.13 81.31 82.21